Elkins, WV

3:34 AM EDT on September 19, 2019 (GMT -0400)
Elkins-Randolph County

Weather History for KEKN - August, 2019

Change the Weather History Date:

Thursday, August 22, 2019

  Actual Average Record
Temperature  
Mean Temperature 76 °F 69 °F  
Max Temperature 86 °F 80 °F 95 °F (1936)
Min Temperature 65 °F 58 °F 44 °F (1925)
Degree Days  
Heating Degree Days 0 1  
Month to date heating degree days 0 7  
Since 1 June heating degree days 39 74  
Since 1 July heating degree days 0 19  
Cooling Degree Days 10 4  
Month to date cooling degree days 181 108  
Year to date cooling degree days 651 389  
Since 1 June cooling degree days 568 366  
Growing Degree Days 26 (Base 50)    
Moisture  
Dew Point 65 °F    
Average Humidity 77    
Maximum Humidity 93    
Minimum Humidity 45    
Precipitation  
Precipitation 0.25 in 0.12 in 2.17 in (1987)
Month to date precipitation 3.52 2.82  
Year to date precipitation 35.14 31.79  
Sea Level Pressure  
Sea Level Pressure 30.03 in    
Wind  
Wind Speed 2 mph ()    
Max Wind Speed 22 mph    
Max Gust Speed 29 mph    
Visibility 8.2 miles    
Events Rain , Thunderstorm    
T = Trace of Precipitation, MM = Missing Value Source: Averaged Metar Reports

Daily Weather History Graph

Daily Weather History Graph

Search for Another Location

Airport or City:

Astronomy

Aug. 22, 2019 Rise Set
Actual Time 6:39 AM EDT 8:04 PM EDT
Civil Twilight 6:11 AM EDT 8:32 PM EDT
Nautical Twilight 5:37 AM EDT 9:06 PM EDT
Astronomical Twilight 5:02 AM EDT 9:41 PM EDT
Moon 11:57 PM EDT (8/22) 1:09 PM EDT (8/22)
Length of Visible Light 14h 21m
Length of Day
13h 25m
Waning Gibbous, 60% of the Moon is Illuminated
Aug 22
Waning Gibbous
Aug 23
Last Quarter
Aug 30
New
Sep 5
First Quarter
Sep 14
Full

Hourly Weather History & Observations

Time (EDT) Temp. Heat Index Dew Point Humidity Pressure Visibility Wind Dir Wind Speed Gust Speed Precip Events Conditions
12:36 AM 69.1 °F - 64.9 °F 87% 30.06 in 9.0 mi Calm Calm - N/A   Mostly Cloudy
12:51 AM 68.0 °F - 64.9 °F 90% 30.02 in 8.0 mi Calm Calm - N/A   Scattered Clouds
1:51 AM 66.9 °F - 64.0 °F 90% 30.00 in 6.0 mi Calm Calm - N/A   Partly Cloudy
2:20 AM 66.9 °F - 64.9 °F 93% 30.03 in 6.0 mi Calm Calm - N/A   Mostly Cloudy
2:51 AM 68.0 °F - 64.9 °F 90% 29.99 in 8.0 mi Calm Calm - N/A   Overcast
3:51 AM 66.9 °F - 64.0 °F 90% 29.99 in 8.0 mi Calm Calm - N/A   Overcast
4:51 AM 66.9 °F - 64.0 °F 90% 30.01 in 9.0 mi Calm Calm - N/A   Overcast
5:16 AM 66.9 °F - 63.0 °F 87% 30.04 in 7.0 mi Calm Calm - N/A   Scattered Clouds
5:51 AM 66.0 °F - 63.0 °F 90% 30.01 in 7.0 mi Calm Calm - N/A   Mostly Cloudy
6:51 AM 66.0 °F - 62.1 °F 87% 30.03 in 6.0 mi Calm Calm - N/A   Mostly Cloudy
6:58 AM 66.0 °F - 63.0 °F 90% 30.06 in 6.0 mi Calm Calm - N/A   Mostly Cloudy
7:51 AM 68.0 °F - 64.0 °F 87% 30.03 in 9.0 mi WNW 3.5 mph - N/A   Overcast
8:51 AM 71.1 °F - 64.9 °F 81% 30.03 in 10.0 mi Calm Calm - N/A   Overcast
9:51 AM 77.0 °F - 66.9 °F 71% 30.03 in 10.0 mi Calm Calm - N/A   Mostly Cloudy
10:37 AM 79.0 °F - 66.9 °F 66% 30.07 in 10.0 mi Calm Calm - N/A   Mostly Cloudy
10:51 AM 78.1 °F - 66.9 °F 68% 30.04 in 10.0 mi Calm Calm - N/A   Overcast
11:23 AM 79.0 °F - 68.0 °F 69% 30.08 in 10.0 mi Calm Calm - N/A Thunderstorm Overcast
11:40 AM 75.0 °F - 64.9 °F 71% 30.12 in 2.0 mi West 20.7 mph 28.8 mph 0.00 in Rain , Thunderstorm Light Thunderstorms and Rain
11:43 AM 70.0 °F - 62.1 °F 76% 30.11 in 0.8 mi West 11.5 mph 28.8 mph 0.04 in Rain , Thunderstorm Heavy Thunderstorms and Rain
11:51 AM 68.0 °F - 62.1 °F 81% 30.08 in 1.0 mi SE 5.8 mph 18.4 mph 0.23 in Rain , Thunderstorm Thunderstorms and Rain
11:54 AM 68.0 °F - 63.0 °F 84% 30.10 in 3.0 mi East 4.6 mph - 0.00 in Rain , Thunderstorm Light Thunderstorms and Rain
12:13 PM 71.1 °F - 64.9 °F 81% 30.08 in 10.0 mi ESE 4.6 mph - 0.00 in   Scattered Clouds
12:51 PM 75.9 °F - 66.9 °F 74% 30.04 in 10.0 mi Calm Calm - 0.00 in   Clear
1:51 PM 81.0 °F 83.0 °F 66.0 °F 60% 30.00 in 10.0 mi SW 4.6 mph - N/A   Clear
2:51 PM 84.0 °F 86.3 °F 66.0 °F 55% 29.99 in 10.0 mi Calm Calm - N/A   Partly Cloudy
3:51 PM 84.9 °F 86.1 °F 64.0 °F 49% 29.96 in 10.0 mi NW 8.1 mph - N/A   Scattered Clouds
4:51 PM 86.0 °F 86.8 °F 63.0 °F 46% 29.96 in 10.0 mi WNW 5.8 mph - N/A   Clear
5:51 PM 84.0 °F 85.4 °F 64.0 °F 51% 29.97 in 10.0 mi WNW 8.1 mph - N/A   Clear
6:51 PM 82.9 °F 85.0 °F 66.0 °F 56% 29.97 in 10.0 mi WSW 4.6 mph - N/A   Clear
7:47 PM 78.8 °F - 68.0 °F 69% 30.01 in 10.0 mi West 3.5 mph - N/A Thunderstorm Clear
7:51 PM 78.1 °F - 68.0 °F 71% 29.98 in 10.0 mi Calm Calm - N/A Thunderstorm Clear
8:51 PM 73.9 °F - 64.0 °F 71% 29.99 in 10.0 mi South 5.8 mph - N/A   Mostly Cloudy
9:51 PM 72.0 °F - 66.9 °F 84% 30.01 in 10.0 mi SSE 4.6 mph - 0.00 in   Overcast
10:51 PM 71.1 °F - 66.9 °F 87% 30.01 in 10.0 mi Calm Calm - N/A   Mostly Cloudy
11:17 PM 71.1 °F - 66.9 °F 87% 30.05 in 9.0 mi Calm Calm - N/A   Overcast
11:33 PM 70.0 °F - 66.9 °F 90% 30.05 in 10.0 mi Calm Calm - 0.00 in   Mostly Cloudy
11:51 PM 70.0 °F - 66.9 °F 90% 30.03 in 9.0 mi Calm Calm - 0.00 in   Scattered Clouds